"Pseudo-MPEC" for P12oAYQ

Created 2026 Jul 28 21:35:05 UT using Find_Orb

Click here for an explanation of pseudo-MPECs

 
 Astrometry: 
     P12oAYQ*0C2026 07 24.57948423 50 23.925+07 00 30.86   ~7OFo 21.41wXNEOCPF51
     P12oAYQ 0C2026 07 24.59122123 50 24.367+07 00 51.47   ~7OFo 22.01wXNEOCPF51
     P12oAYQ 0C2026 07 24.60328023 50 24.826+07 01 12.58   ~7OFo 21.71wXNEOCPF51
     P12oAYQ 0C2026 07 24.61495323 50 25.272+07 01 33.03   ~7OFo 21.67wXNEOCPF51
     P12oAYQ 0C2026 07 26.49897123 51 42.114+07 56 26.64   ~7QDZ 21.66wXNEOCPF52
     P12oAYQ 0C2026 07 26.50857923 51 42.444+07 56 43.38   ~7QDZ 22.01wXNEOCPF52
     P12oAYQ 0C2026 07 26.52784423 51 43.085+07 57 17.20   ~7QDZ 21.80wXNEOCPF52

Station data:
(F51) Pan-STARRS 1, Haleakala  (N20.707234 W156.255910)  US/Hawaii.
   Observers J. Herman, T. Lowe, P. Minguez, A. Schultz, I. Smith. Measurers
   K. Chambers, T. de Boer, J. Fairlamb, H. Gao, M. Huber, C.-C. Lin, E.
   Magnier, Y. Ramanjooloo, R. Wainscoat, R. Weryk. 1.8-m Ritchey-Chrétien +
   CCD.
(F52) Pan-STARRS 2, Haleakala  (N20.707382 W156.255910)  US/Hawaii.
   Observers J. Herman, T. Lowe, P. Minguez, A. Schultz, I. Smith. Measurers
   K. Chambers, T. de Boer, J. Fairlamb, H. Gao, M. Huber, C.-C. Lin, E.
   Magnier, Y. Ramanjooloo, R. Wainscoat, R. Weryk. 1.8-m Ritchey-Chrétien +
   CCD.

Orbital elements:  P12oAYQ
   Perihelion 2026 Nov 23.636488 +/- 55.5 TT = 15:16:32.5 (JD 2461368.136488)
Epoch 2026 Jul 26.0 TT = JDT 2461247.5   Earth MOID: 0.3971      AutoNEOCP
M 306.628358571 +/- 21              (J2000 ecliptic)
n   0.442417070 +/- 0.165           Peri.   96.163432 +/- 36
a   1.705747718 +/- 0.424           Node   313.361786 +/- 3.3
e   0.26513890 +/- 0.173            Incl.   16.107638 +/- 2.3
P   2.228/813.696d         H 19.91  G  0.15   U 11.5  SR
q 1.253487638 +/- 0.123    Q 2.158007799 +/- 2.06
From 7 observations 2026 July 24-26 (46.8 hr); mean residual 0".23
Residuals in arcseconds: 
260724 F51  .09-  .45-    260724 F51  .14+  .43+    260726 F52  .24-  .32-    
260724 F51  .07-  .12-    260726 F52  .14+  .30+    
260724 F51  .02+  .15+    260726 F52  .10+  .01+    

Ephemerides (geocentric):
Date (UTC) HH   RA             Dec           delta  r     elong  mag " sig PA
---- --------  ------------   ------------  ------ ------ -----  --- --------
2026 07 28 22  23 53 10.318   +09 08 45.23  .70873 1.5215 122.9 21.5 72.1 157
2026 07 28 23  23 53 11.749   +09 10 01.05  .70836 1.5213 122.9 21.5 74.1 157
2026 07 29 00  23 53 13.177   +09 11 16.91  .70798 1.5212 122.9 21.5 76.1 157
2026 07 29 01  23 53 14.602   +09 12 32.80  .70761 1.5210 123.0 21.5 78.2 157
2026 07 29 02  23 53 16.023   +09 13 48.73  .70724 1.5209 123.0 21.5 80.2 157
2026 07 29 03  23 53 17.441   +09 15 04.70  .70687 1.5207 123.0 21.5 82.3 157
2026 07 29 04  23 53 18.856   +09 16 20.71  .70650 1.5206 123.0 21.5 84.4 157
2026 07 29 05  23 53 20.267   +09 17 36.75  .70613 1.5204 123.1 21.5 86.5 157
2026 07 29 06  23 53 21.675   +09 18 52.83  .70576 1.5203 123.1 21.5 88.7 157
2026 07 29 07  23 53 23.080   +09 20 08.95  .70539 1.5201 123.1 21.5 90.9 157
2026 07 29 08  23 53 24.481   +09 21 25.10  .70502 1.5200 123.1 21.5 93.1 157
2026 07 29 09  23 53 25.879   +09 22 41.29  .70465 1.5198 123.2 21.5 95.3 157
2026 07 29 10  23 53 27.274   +09 23 57.52  .70428 1.5197 123.2 21.5 97.5 157
2026 07 29 11  23 53 28.665   +09 25 13.79  .70391 1.5195 123.2 21.5  100 157
2026 07 29 12  23 53 30.053   +09 26 30.09  .70354 1.5194 123.2 21.5  102 157
2026 07 29 13  23 53 31.438   +09 27 46.43  .70317 1.5192 123.3 21.5  104 157
2026 07 29 14  23 53 32.819   +09 29 02.81  .70280 1.5191 123.3 21.5  107 157
2026 07 29 15  23 53 34.197   +09 30 19.23  .70243 1.5189 123.3 21.5  109 157
2026 07 29 16  23 53 35.572   +09 31 35.68  .70206 1.5188 123.3 21.5  112 157
2026 07 29 17  23 53 36.943   +09 32 52.17  .70170 1.5187 123.3 21.5  114 157
2026 07 29 18  23 53 38.311   +09 34 08.70  .70133 1.5185 123.4 21.5  117 157
2026 07 29 19  23 53 39.675   +09 35 25.26  .70096 1.5184 123.4 21.5  119 157
2026 07 29 20  23 53 41.036   +09 36 41.87  .70059 1.5182 123.4 21.5  122 157
2026 07 29 21  23 53 42.394   +09 37 58.51  .70022 1.5181 123.4 21.5  124 157
2026 07 29 22  23 53 43.748   +09 39 15.19  .69986 1.5179 123.5 21.5  127 157
2026 07 29 23  23 53 45.099   +09 40 31.90  .69949 1.5178 123.5 21.5  129 157
2026 07 30 00  23 53 46.446   +09 41 48.65  .69912 1.5176 123.5 21.5  132 157
2026 07 30 01  23 53 47.790   +09 43 05.44  .69875 1.5175 123.5 21.5  134 157
2026 07 30 02  23 53 49.131   +09 44 22.27  .69839 1.5173 123.6 21.5  137 157
2026 07 30 03  23 53 50.468   +09 45 39.14  .69802 1.5172 123.6 21.4  140 157
2026 07 30 04  23 53 51.802   +09 46 56.04  .69766 1.5170 123.6 21.4  143 157
2026 07 30 05  23 53 53.132   +09 48 12.98  .69729 1.5169 123.6 21.4  145 158
2026 07 30 06  23 53 54.459   +09 49 29.96  .69692 1.5167 123.7 21.4  148 158
2026 07 30 07  23 53 55.782   +09 50 46.97  .69656 1.5166 123.7 21.4  151 158
2026 07 30 08  23 53 57.102   +09 52 04.03  .69619 1.5164 123.7 21.4  154 158
2026 07 30 09  23 53 58.419   +09 53 21.12  .69583 1.5163 123.7 21.4  156 158
2026 07 30 10  23 53 59.732   +09 54 38.25  .69546 1.5161 123.7 21.4  159 158
2026 07 30 11  23 54 01.042   +09 55 55.41  .69510 1.5160 123.8 21.4  162 158
2026 07 30 12  23 54 02.348   +09 57 12.61  .69473 1.5158 123.8 21.4  165 158
2026 07 30 13  23 54 03.651   +09 58 29.86  .69437 1.5157 123.8 21.4  168 158
2026 07 30 14  23 54 04.950   +09 59 47.13  .69400 1.5155 123.8 21.4  171 158
2026 07 30 15  23 54 06.246   +10 01 04.45  .69364 1.5154 123.9 21.4  174 158
2026 07 30 16  23 54 07.539   +10 02 21.80  .69327 1.5152 123.9 21.4  177 158
2026 07 30 17  23 54 08.828   +10 03 39.19  .69291 1.5151 123.9 21.4  180 158
2026 07 30 18  23 54 10.113   +10 04 56.62  .69255 1.5149 123.9 21.4  183 158
2026 07 30 19  23 54 11.395   +10 06 14.09  .69218 1.5148 124.0 21.4  186 158
2026 07 30 20  23 54 12.674   +10 07 31.59  .69182 1.5146 124.0 21.4  190 158
2026 07 30 21  23 54 13.949   +10 08 49.13  .69146 1.5145 124.0 21.4  193 158